Regional Weather Roundup
Issued by NWS Goodland, KS

Home | Current Version | Previous Version | Graphics & Text | Print | Product List | Glossary On
Versions: 1 2 3 4 5 6 7 8 9 10 11 12 13 14 15 16 17 18 19 20 21 22 23 24 25 26 27 28 29 30 31 32 33 34 35 36 37 38 39 40 41 42 43 44 45 46 47 48 49 50
000
ASUS43 KGLD 271259
RWRGLD

GOODLAND FORECAST AREA HOURLY WEATHER ROUNDUP
NATIONAL WEATHER SERVICE GOODLAND KS
700 AM MDT WED JUL 27 2016

...OFFICIAL OBSERVATIONS...

CITY           SKY/WX    TMP DP  RH WIND       PRES   REMARKS
GOODLAND KS    SUNNY     63  60  90 SE6       30.10F
HILL CITY KS   CLOUDY    69  60  73 W3        30.03S
IMPERIAL NEB   MOSUNNY   63  58  83 N8        30.13S
MCCOOK NEB     SUNNY     64  59  83 NW6       30.08S
AKRON CO       SUNNY     63  57  81 E12       30.16F
BURLINGTON CO  FOG       64  61  90 E8        30.14F VSB 1/2
LIMON CO       SUNNY     64  56  75 SW3       30.21
$$

...UNOFFICIAL OBSERVATIONS...

CITY           SKY/WX    TMP DP  RH WIND       PRES   REMARKS
COLBY KS       SUNNY     66  64  94 SE6       30.09F
LENORA KS        N/A     66  32  28 MISG        N/A
NORTON KS      SUNNY     63  55  77 W7        30.04
KIT CARSON CO    N/A     62  56  81 CALM        N/A
YUMA CO          N/A     61  59  92 CALM        N/A
$$




USA.gov is the U.S. government's official web portal to all federal, state and local government web resources and services.